Time,TemperatureF,DewpointF,PressureIn,WindDirection,WindDirectionDegrees,WindSpeedMPH,WindSpeedGustMPH,Humidity,HourlyPrecipIn,Conditions,Clouds,dailyrainin,SolarRadiationWatts/m^2,SoftwareType,DateUTC
2013-07-04 00:01:00,76.6,71.4,29.91,NNE,30,0.0,0.0,84,0.00,,,0.00,0,WeatherCatV1.12B45,2013-07-04 04:01:00,
2013-07-04 00:06:00,76.6,71.4,29.91,North,0,0.0,0.0,84,0.00,,,0.00,0,WeatherCatV1.12B45,2013-07-04 04:06:00,
2013-07-04 00:11:00,76.5,71.3,29.91,North,355,0.0,1.0,84,0.00,,,0.00,0,WeatherCatV1.12B45,2013-07-04 04:11:00,
2013-07-04 00:16:00,76.4,71.2,29.91,SSE,159,1.0,3.0,84,0.00,,,0.00,0,WeatherCatV1.12B45,2013-07-04 04:16:00,
2013-07-04 00:21:00,76.3,71.4,29.91,South,170,1.0,2.0,85,0.00,,,0.00,0,WeatherCatV1.12B45,2013-07-04 04:21:00,
2013-07-04 00:26:00,76.2,71.3,29.91,South,173,0.0,3.0,85,0.00,,,0.00,0,WeatherCatV1.12B45,2013-07-04 04:26:00,
2013-07-04 00:31:00,76.1,71.2,29.91,SSE,153,0.0,2.0,85,0.00,,,0.00,0,WeatherCatV1.12B45,2013-07-04 04:31:00,
2013-07-04 00:36:00,76.0,71.2,29.91,SE,140,0.0,0.0,85,0.00,,,0.00,0,WeatherCatV1.12B45,2013-07-04 04:36:00,
2013-07-04 00:37:00,76.0,71.2,29.91,SSE,151,0.0,3.0,85,0.00,,,0.00,0,WeatherCatV1.12B45,2013-07-04 04:37:00,
2013-07-04 00:42:00,76.0,71.2,29.91,South,171,0.0,2.0,85,0.00,,,0.00,0,WeatherCatV1.12B45,2013-07-04 04:42:00,
2013-07-04 00:47:00,75.9,71.1,29.91,South,171,1.0,1.0,85,0.00,,,0.00,0,WeatherCatV1.12B45,2013-07-04 04:47:00,
2013-07-04 00:52:00,75.8,71.3,29.91,ENE,68,0.0,0.0,86,0.00,,,0.00,0,WeatherCatV1.12B45,2013-07-04 04:52:00,
2013-07-04 00:57:00,75.8,71.3,29.91,East,82,0.0,1.0,86,0.00,,,0.00,0,WeatherCatV1.12B45,2013-07-04 04:57:00,
2013-07-04 01:02:00,75.7,71.2,29.92,East,82,0.0,1.0,86,0.00,,,0.00,0,WeatherCatV1.12B45,2013-07-04 05:02:00,
2013-07-04 01:07:00,75.7,71.2,29.91,SSE,167,1.0,2.0,86,0.00,,,0.00,0,WeatherCatV1.12B45,2013-07-04 05:07:00,
2013-07-04 01:12:00,75.6,71.1,29.91,SSE,165,0.0,2.0,86,0.00,,,0.00,0,WeatherCatV1.12B45,2013-07-04 05:12:00,
2013-07-04 01:17:00,75.5,71.0,29.92,NW,306,0.0,0.0,86,0.00,,,0.00,0,WeatherCatV1.12B45,2013-07-04 05:17:00,
2013-07-04 01:22:00,75.5,71.3,29.91,WNW,287,0.0,1.0,87,0.00,,,0.00,0,WeatherCatV1.12B45,2013-07-04 05:22:00,
2013-07-04 01:27:00,75.4,71.2,29.91,SE,140,3.0,3.0,87,0.00,,,0.00,0,WeatherCatV1.12B45,2013-07-04 05:27:00,
2013-07-04 01:32:00,75.4,71.2,29.91,North,350,0.0,2.0,87,0.00,,,0.00,0,WeatherCatV1.12B45,2013-07-04 05:32:00,
2013-07-04 01:37:00,75.3,71.2,29.91,NW,319,0.0,3.0,87,0.00,,,0.00,0,WeatherCatV1.12B45,2013-07-04 05:37:00,
2013-07-04 01:42:00,75.3,71.2,29.91,NW,319,0.0,1.0,87,0.00,,,0.00,0,WeatherCatV1.12B45,2013-07-04 05:42:00,
2013-07-04 01:47:00,75.2,71.1,29.91,South,183,0.0,0.0,87,0.00,,,0.00,0,WeatherCatV1.12B45,2013-07-04 05:47:00,
2013-07-04 01:52:00,75.2,71.1,29.91,South,169,0.0,2.0,87,0.00,,,0.00,0,WeatherCatV1.12B45,2013-07-04 05:52:00,
2013-07-04 01:57:00,75.1,71.0,29.91,East,88,0.0,2.0,87,0.00,,,0.00,0,WeatherCatV1.12B45,2013-07-04 05:57:00,
2013-07-04 02:02:00,75.1,71.3,29.91,ENE,74,0.0,1.0,88,0.00,,,0.00,0,WeatherCatV1.12B45,2013-07-04 06:02:00,
2013-07-04 02:07:00,75.0,71.2,29.91,South,171,0.0,3.0,88,0.00,,,0.00,0,WeatherCatV1.12B45,2013-07-04 06:07:00,
2013-07-04 02:12:00,75.0,71.2,29.91,South,171,0.0,2.0,88,0.00,,,0.00,0,WeatherCatV1.12B45,2013-07-04 06:12:00,
2013-07-04 02:17:00,74.9,71.1,29.91,SW,214,0.0,1.0,88,0.00,,,0.00,0,WeatherCatV1.12B45,2013-07-04 06:17:00,
2013-07-04 02:22:00,74.9,71.1,29.91,SW,215,0.0,1.0,88,0.00,,,0.00,0,WeatherCatV1.12B45,2013-07-04 06:22:00,
2013-07-04 02:27:00,74.8,71.0,29.91,SSW,213,0.0,0.0,88,0.00,,,0.00,0,WeatherCatV1.12B45,2013-07-04 06:27:00,
2013-07-04 02:32:00,74.8,71.0,29.90,SSE,157,0.0,1.0,88,0.00,,,0.00,0,WeatherCatV1.12B45,2013-07-04 06:32:00,
2013-07-04 02:37:00,74.7,70.9,29.90,SSE,150,0.0,1.0,88,0.00,,,0.00,0,WeatherCatV1.12B45,2013-07-04 06:37:00,
2013-07-04 02:42:00,74.7,70.9,29.90,South,169,0.0,1.0,88,0.00,,,0.00,0,WeatherCatV1.12B45,2013-07-04 06:42:00,
2013-07-04 02:47:00,74.6,71.1,29.90,SSW,209,0.0,0.0,89,0.00,,,0.00,0,WeatherCatV1.12B45,2013-07-04 06:47:00,
2013-07-04 02:52:00,74.6,71.1,29.90,WSW,238,0.0,1.0,89,0.00,,,0.00,0,WeatherCatV1.12B45,2013-07-04 06:52:00,
2013-07-04 02:57:00,74.5,71.0,29.90,West,261,1.0,1.0,89,0.00,,,0.00,0,WeatherCatV1.12B45,2013-07-04 06:57:00,
2013-07-04 03:02:00,74.5,71.0,29.90,SSW,213,1.0,1.0,89,0.00,,,0.00,0,WeatherCatV1.12B45,2013-07-04 07:02:00,
2013-07-04 03:07:00,74.4,70.9,29.90,WSW,243,0.0,2.0,89,0.00,,,0.00,0,WeatherCatV1.12B45,2013-07-04 07:07:00,
2013-07-04 03:12:00,74.4,70.9,29.90,WSW,246,0.0,1.0,89,0.00,,,0.00,0,WeatherCatV1.12B45,2013-07-04 07:12:00,
2013-07-04 03:17:00,74.3,70.8,29.90,SE,129,0.0,1.0,89,0.00,,,0.00,0,WeatherCatV1.12B45,2013-07-04 07:17:00,
2013-07-04 03:22:00,74.3,70.8,29.90,NNW,346,0.0,3.0,89,0.00,,,0.00,0,WeatherCatV1.12B45,2013-07-04 07:22:00,
2013-07-04 03:27:00,74.2,71.1,29.90,NNW,346,0.0,1.0,90,0.00,,,0.00,0,WeatherCatV1.12B45,2013-07-04 07:27:00,
2013-07-04 03:32:00,74.2,71.1,29.90,NNW,346,0.0,1.0,90,0.00,,,0.00,0,WeatherCatV1.12B45,2013-07-04 07:32:00,
2013-07-04 03:37:00,74.1,71.0,29.90,NNW,346,0.0,1.0,90,0.00,,,0.00,0,WeatherCatV1.12B45,2013-07-04 07:37:00,
2013-07-04 03:42:00,74.1,71.0,29.90,NNW,336,0.0,3.0,90,0.00,,,0.00,0,WeatherCatV1.12B45,2013-07-04 07:42:00,
2013-07-04 03:47:00,74.0,70.9,29.90,NNW,336,2.0,2.0,90,0.00,,,0.00,0,WeatherCatV1.12B45,2013-07-04 07:47:00,
2013-07-04 03:52:00,74.0,70.9,29.90,NNW,336,0.0,0.0,90,0.00,,,0.00,0,WeatherCatV1.12B45,2013-07-04 07:52:00,
2013-07-04 03:57:00,74.0,70.9,29.90,NNW,336,0.0,1.0,90,0.00,,,0.00,0,WeatherCatV1.12B45,2013-07-04 07:57:00,
2013-07-04 04:02:00,74.0,70.9,29.90,NNW,336,0.0,0.0,90,0.00,,,0.00,0,WeatherCatV1.12B45,2013-07-04 08:02:00,
2013-07-04 04:07:00,73.9,70.8,29.90,NNW,336,0.0,1.0,90,0.00,,,0.00,0,WeatherCatV1.12B45,2013-07-04 08:07:00,
2013-07-04 04:12:00,73.8,70.7,29.90,NNW,336,0.0,1.0,90,0.00,,,0.00,0,WeatherCatV1.12B45,2013-07-04 08:12:00,
2013-07-04 04:17:00,73.8,70.7,29.90,NNW,336,0.0,0.0,90,0.00,,,0.00,0,WeatherCatV1.12B45,2013-07-04 08:17:00,
2013-07-04 04:22:00,73.7,70.6,29.90,NNW,336,0.0,0.0,90,0.00,,,0.00,0,WeatherCatV1.12B45,2013-07-04 08:22:00,
2013-07-04 04:27:00,73.7,70.9,29.91,NNW,336,0.0,2.0,91,0.00,,,0.00,0,WeatherCatV1.12B45,2013-07-04 08:27:00,
2013-07-04 04:32:00,73.7,70.9,29.91,NNW,336,0.0,2.0,91,0.00,,,0.00,0,WeatherCatV1.12B45,2013-07-04 08:32:00,
2013-07-04 04:37:00,73.6,70.8,29.91,NNW,336,0.0,0.0,91,0.00,,,0.00,0,WeatherCatV1.12B45,2013-07-04 08:37:00,
2013-07-04 04:42:00,73.6,70.8,29.91,NNW,336,0.0,1.0,91,0.00,,,0.00,0,WeatherCatV1.12B45,2013-07-04 08:42:00,
2013-07-04 04:47:00,73.5,70.7,29.91,NNW,336,0.0,0.0,91,0.00,,,0.00,0,WeatherCatV1.12B45,2013-07-04 08:47:00,
2013-07-04 04:52:00,73.5,70.7,29.91,NNW,336,0.0,0.0,91,0.00,,,0.00,0,WeatherCatV1.12B45,2013-07-04 08:52:00,
2013-07-04 04:57:00,73.5,70.7,29.91,NNW,336,0.0,1.0,91,0.00,,,0.00,0,WeatherCatV1.12B45,2013-07-04 08:57:00,
2013-07-04 05:02:00,73.5,70.7,29.91,NNW,336,0.0,0.0,91,0.00,,,0.00,0,WeatherCatV1.12B45,2013-07-04 09:02:00,
2013-07-04 05:07:00,73.4,70.6,29.91,NNW,336,0.0,0.0,91,0.00,,,0.00,0,WeatherCatV1.12B45,2013-07-04 09:07:00,
2013-07-04 05:12:00,73.4,70.6,29.91,NNW,336,0.0,0.0,91,0.00,,,0.00,0,WeatherCatV1.12B45,2013-07-04 09:12:00,
2013-07-04 05:17:00,73.4,70.6,29.91,NNW,336,0.0,1.0,91,0.00,,,0.00,0,WeatherCatV1.12B45,2013-07-04 09:17:00,
2013-07-04 05:22:00,73.3,70.5,29.91,NNW,336,0.0,0.0,91,0.00,,,0.00,0,WeatherCatV1.12B45,2013-07-04 09:22:00,
2013-07-04 05:27:00,73.3,70.5,29.91,NNW,336,0.0,0.0,91,0.00,,,0.00,5,WeatherCatV1.12B45,2013-07-04 09:27:00,
2013-07-04 05:32:00,73.3,70.5,29.91,NNW,336,0.0,0.0,91,0.00,,,0.00,7,WeatherCatV1.12B45,2013-07-04 09:32:00,
2013-07-04 05:37:00,73.3,70.5,29.91,NNW,336,0.0,0.0,91,0.00,,,0.00,9,WeatherCatV1.12B45,2013-07-04 09:37:00,
2013-07-04 05:42:00,73.2,70.4,29.91,NNW,336,0.0,0.0,91,0.00,,,0.00,11,WeatherCatV1.12B45,2013-07-04 09:42:00,
2013-07-04 05:47:00,73.2,70.4,29.92,NNW,336,0.0,0.0,91,0.00,,,0.00,25,WeatherCatV1.12B45,2013-07-04 09:47:00,
2013-07-04 05:52:00,73.2,70.7,29.92,NNW,336,0.0,0.0,92,0.00,,,0.00,16,WeatherCatV1.12B45,2013-07-04 09:52:00,
2013-07-04 05:57:00,73.2,70.7,29.92,NNW,336,0.0,0.0,92,0.00,,,0.00,16,WeatherCatV1.12B45,2013-07-04 09:57:00,
2013-07-04 06:02:00,73.2,70.7,29.92,NNW,336,0.0,0.0,92,0.00,,,0.00,18,WeatherCatV1.12B45,2013-07-04 10:02:00,
2013-07-04 06:07:00,73.3,70.8,29.92,NNW,336,0.0,0.0,92,0.00,,,0.00,19,WeatherCatV1.12B45,2013-07-04 10:07:00,
2013-07-04 06:12:00,73.3,70.8,29.92,NNW,336,0.0,0.0,92,0.00,,,0.00,21,WeatherCatV1.12B45,2013-07-04 10:12:00,
2013-07-04 06:17:00,73.3,70.8,29.92,NNW,336,0.0,0.0,92,0.00,,,0.00,21,WeatherCatV1.12B45,2013-07-04 10:17:00,
2013-07-04 06:22:00,73.4,70.9,29.92,NNW,336,0.0,1.0,92,0.00,,,0.00,23,WeatherCatV1.12B45,2013-07-04 10:22:00,
2013-07-04 06:27:00,73.5,71.0,29.92,NNW,336,0.0,0.0,92,0.00,,,0.00,25,WeatherCatV1.12B45,2013-07-04 10:27:00,
2013-07-04 06:32:00,73.7,71.2,29.92,NNW,336,0.0,0.0,92,0.00,,,0.00,25,WeatherCatV1.12B45,2013-07-04 10:32:00,
2013-07-04 06:37:00,73.8,71.6,29.92,NNW,329,0.0,1.0,93,0.00,,,0.00,26,WeatherCatV1.12B45,2013-07-04 10:37:00,
2013-07-04 06:42:00,73.9,71.7,29.93,NNW,329,0.0,1.0,93,0.00,,,0.00,30,WeatherCatV1.12B45,2013-07-04 10:42:00,
2013-07-04 06:47:00,74.0,71.8,29.92,NNW,329,0.0,1.0,93,0.00,,,0.00,72,WeatherCatV1.12B45,2013-07-04 10:47:00,
2013-07-04 06:52:00,74.2,72.0,29.92,NNW,341,0.0,1.0,93,0.00,,,0.00,30,WeatherCatV1.12B45,2013-07-04 10:52:00,
2013-07-04 06:57:00,74.3,72.1,29.92,North,349,0.0,2.0,93,0.00,,,0.00,32,WeatherCatV1.12B45,2013-07-04 10:57:00,
2013-07-04 07:02:00,74.5,72.3,29.92,SE,127,0.0,0.0,93,0.00,,,0.00,32,WeatherCatV1.12B45,2013-07-04 11:02:00,
2013-07-04 07:07:00,74.7,72.2,29.93,SSE,164,0.0,2.0,92,0.00,,,0.00,35,WeatherCatV1.12B45,2013-07-04 11:07:00,
2013-07-04 07:12:00,74.8,72.3,29.93,NW,322,0.0,3.0,92,0.00,,,0.00,39,WeatherCatV1.12B45,2013-07-04 11:12:00,
2013-07-04 07:17:00,74.9,72.4,29.93,NW,326,0.0,3.0,92,0.00,,,0.00,42,WeatherCatV1.12B45,2013-07-04 11:17:00,
2013-07-04 07:22:00,75.1,72.6,29.93,South,190,3.0,3.0,92,0.00,,,0.00,42,WeatherCatV1.12B45,2013-07-04 11:22:00,
2013-07-04 07:27:00,75.2,72.7,29.93,SW,216,0.0,0.0,92,0.00,,,0.00,44,WeatherCatV1.12B45,2013-07-04 11:27:00,
2013-07-04 07:32:00,75.4,72.9,29.93,NW,314,2.0,2.0,92,0.00,,,0.00,44,WeatherCatV1.12B45,2013-07-04 11:32:00,
2013-07-04 07:37:00,75.5,73.0,29.93,NW,314,0.0,0.0,92,0.00,,,0.00,47,WeatherCatV1.12B45,2013-07-04 11:37:00,
2013-07-04 07:42:00,75.7,73.2,29.93,South,188,1.0,3.0,92,0.00,,,0.00,47,WeatherCatV1.12B45,2013-07-04 11:42:00,
2013-07-04 07:47:00,75.9,73.1,29.93,NW,317,0.0,3.0,91,0.00,,,0.00,46,WeatherCatV1.12B45,2013-07-04 11:47:00,
2013-07-04 07:52:00,76.1,73.3,29.93,NW,317,0.0,0.0,91,0.00,,,0.00,51,WeatherCatV1.12B45,2013-07-04 11:52:00,
2013-07-04 07:57:00,76.2,73.4,29.93,SW,220,0.0,3.0,91,0.00,,,0.00,54,WeatherCatV1.12B45,2013-07-04 11:57:00,
2013-07-04 08:02:00,76.4,73.2,29.93,NW,323,1.0,1.0,90,0.00,,,0.00,58,WeatherCatV1.12B45,2013-07-04 12:02:00,
2013-07-04 08:07:00,76.7,73.5,29.93,South,186,0.0,2.0,90,0.00,,,0.00,60,WeatherCatV1.12B45,2013-07-04 12:07:00,
2013-07-04 08:12:00,76.9,73.7,29.93,South,172,1.0,3.0,90,0.00,,,0.00,63,WeatherCatV1.12B45,2013-07-04 12:12:00,
2013-07-04 08:17:00,77.2,73.7,29.93,South,190,1.0,1.0,89,0.00,,,0.00,65,WeatherCatV1.12B45,2013-07-04 12:17:00,
2013-07-04 08:22:00,77.4,73.6,29.93,SSE,166,0.0,1.0,88,0.00,,,0.00,70,WeatherCatV1.12B45,2013-07-04 12:22:00,
2013-07-04 08:27:00,77.7,73.8,29.93,SSW,207,0.0,2.0,88,0.00,,,0.00,510,WeatherCatV1.12B45,2013-07-04 12:27:00,
2013-07-04 08:32:00,79.1,74.2,29.93,ESE,114,0.0,1.0,85,0.00,,,0.00,526,WeatherCatV1.12B45,2013-07-04 12:32:00,
2013-07-04 08:37:00,80.6,74.6,29.93,NNW,331,0.0,3.0,82,0.00,,,0.00,538,WeatherCatV1.12B45,2013-07-04 12:37:00,
2013-07-04 08:42:00,81.4,74.6,29.93,NNW,330,0.0,2.0,80,0.00,,,0.00,555,WeatherCatV1.12B45,2013-07-04 12:42:00,
2013-07-04 08:47:00,81.7,74.2,29.93,South,176,2.0,3.0,78,0.00,,,0.00,555,WeatherCatV1.12B45,2013-07-04 12:47:00,
2013-07-04 08:52:00,82.1,74.2,29.93,WSW,255,1.0,1.0,77,0.00,,,0.00,570,WeatherCatV1.12B45,2013-07-04 12:52:00,
2013-07-04 08:57:00,82.7,75.1,29.93,SE,132,1.0,3.0,78,0.00,,,0.00,592,WeatherCatV1.12B45,2013-07-04 12:57:00,
2013-07-04 09:02:00,82.7,74.3,29.93,WNW,282,2.0,4.0,76,0.00,,,0.00,601,WeatherCatV1.12B45,2013-07-04 13:02:00,
2013-07-04 09:07:00,83.0,75.4,29.93,WNW,282,2.0,2.0,78,0.00,,,0.00,98,WeatherCatV1.12B45,2013-07-04 13:07:00,
2013-07-04 09:12:00,82.9,75.3,29.93,WNW,291,3.0,3.0,78,0.00,,,0.00,635,WeatherCatV1.12B45,2013-07-04 13:12:00,
2013-07-04 09:17:00,82.7,74.7,29.93,WNW,284,0.0,1.0,77,0.00,,,0.00,647,WeatherCatV1.12B45,2013-07-04 13:17:00,
2013-07-04 09:22:00,83.5,75.1,29.93,SSE,157,0.0,1.0,76,0.00,,,0.00,243,WeatherCatV1.12B45,2013-07-04 13:22:00,
2013-07-04 09:27:00,84.1,75.7,29.93,SSE,156,2.0,2.0,76,0.00,,,0.00,675,WeatherCatV1.12B45,2013-07-04 13:27:00,
2013-07-04 09:32:00,84.3,75.9,29.93,NNE,26,0.0,2.0,76,0.00,,,0.00,691,WeatherCatV1.12B45,2013-07-04 13:32:00,
2013-07-04 09:37:00,84.3,75.1,29.93,NW,321,1.0,2.0,74,0.00,,,0.00,698,WeatherCatV1.12B45,2013-07-04 13:37:00,
2013-07-04 09:42:00,84.0,75.2,29.93,NNW,337,0.0,3.0,75,0.00,,,0.00,710,WeatherCatV1.12B45,2013-07-04 13:42:00,
2013-07-04 09:47:00,84.8,76.0,29.92,WNW,288,0.0,1.0,75,0.00,,,0.00,722,WeatherCatV1.12B45,2013-07-04 13:47:00,
2013-07-04 09:52:00,85.4,76.5,29.92,South,182,0.0,2.0,75,0.00,,,0.00,737,WeatherCatV1.12B45,2013-07-04 13:52:00,
2013-07-04 09:57:00,85.5,75.8,29.92,SSE,166,0.0,2.0,73,0.00,,,0.00,749,WeatherCatV1.12B45,2013-07-04 13:57:00,
2013-07-04 10:02:00,86.0,75.9,29.92,SSE,167,1.0,3.0,72,0.00,,,0.00,761,WeatherCatV1.12B45,2013-07-04 14:02:00,
2013-07-04 10:07:00,85.6,75.1,29.92,SW,227,0.0,3.0,71,0.00,,,0.00,770,WeatherCatV1.12B45,2013-07-04 14:07:00,
2013-07-04 10:12:00,86.1,75.6,29.92,SSE,167,2.0,4.0,71,0.00,,,0.00,534,WeatherCatV1.12B45,2013-07-04 14:12:00,
2013-07-04 10:17:00,86.4,76.3,29.92,NW,315,5.0,5.0,72,0.00,,,0.00,791,WeatherCatV1.12B45,2013-07-04 14:17:00,
2013-07-04 10:22:00,86.3,76.2,29.92,North,349,1.0,6.0,72,0.00,,,0.00,805,WeatherCatV1.12B45,2013-07-04 14:22:00,
2013-07-04 10:27:00,86.5,75.1,29.92,NW,317,1.0,8.0,69,0.00,,,0.00,814,WeatherCatV1.12B45,2013-07-04 14:27:00,
2013-07-04 10:32:00,86.5,75.5,29.92,NW,326,1.0,4.0,70,0.00,,,0.00,826,WeatherCatV1.12B45,2013-07-04 14:32:00,
2013-07-04 10:37:00,87.3,76.3,29.92,SSE,168,0.0,4.0,70,0.00,,,0.00,833,WeatherCatV1.12B45,2013-07-04 14:37:00,
2013-07-04 10:42:00,87.2,75.3,29.92,NW,314,2.0,4.0,68,0.00,,,0.00,847,WeatherCatV1.12B45,2013-07-04 14:42:00,
2013-07-04 10:47:00,87.7,75.8,29.92,SSE,163,4.0,4.0,68,0.00,,,0.00,854,WeatherCatV1.12B45,2013-07-04 14:47:00,
2013-07-04 10:52:00,88.2,75.8,29.91,ESE,107,1.0,4.0,67,0.00,,,0.00,935,WeatherCatV1.12B45,2013-07-04 14:52:00,
2013-07-04 10:57:00,87.8,76.3,29.91,NW,311,0.0,1.0,69,0.00,,,0.00,879,WeatherCatV1.12B45,2013-07-04 14:57:00,
2013-07-04 11:02:00,88.4,75.1,29.91,SSE,157,0.0,4.0,65,0.00,,,0.00,881,WeatherCatV1.12B45,2013-07-04 15:02:00,
2013-07-04 11:07:00,88.3,76.4,29.91,NW,311,0.0,4.0,68,0.00,,,0.00,902,WeatherCatV1.12B45,2013-07-04 15:07:00,
2013-07-04 11:12:00,88.5,76.1,29.91,SSE,147,1.0,5.0,67,0.00,,,0.00,902,WeatherCatV1.12B45,2013-07-04 15:12:00,
2013-07-04 11:17:00,89.2,75.9,29.91,SSE,160,0.0,6.0,65,0.00,,,0.00,889,WeatherCatV1.12B45,2013-07-04 15:17:00,
2013-07-04 11:22:00,89.2,74.9,29.91,NW,318,1.0,7.0,63,0.00,,,0.00,900,WeatherCatV1.12B45,2013-07-04 15:22:00,
2013-07-04 11:27:00,89.1,76.2,29.91,South,174,2.0,4.0,66,0.00,,,0.00,902,WeatherCatV1.12B45,2013-07-04 15:27:00,
2013-07-04 11:32:00,89.6,75.3,29.91,NNW,340,0.0,3.0,63,0.00,,,0.00,905,WeatherCatV1.12B45,2013-07-04 15:32:00,
2013-07-04 11:37:00,89.8,76.4,29.91,South,182,3.0,3.0,65,0.00,,,0.00,918,WeatherCatV1.12B45,2013-07-04 15:37:00,
2013-07-04 11:42:00,90.1,76.2,29.91,SSE,153,2.0,4.0,64,0.00,,,0.00,919,WeatherCatV1.12B45,2013-07-04 15:42:00,
2013-07-04 11:47:00,90.8,76.4,29.90,NW,316,1.0,4.0,63,0.00,,,0.00,921,WeatherCatV1.12B45,2013-07-04 15:47:00,
2013-07-04 11:52:00,90.0,75.2,29.90,ENE,59,0.0,2.0,62,0.00,,,0.00,918,WeatherCatV1.12B45,2013-07-04 15:52:00,
2013-07-04 11:57:00,90.4,76.0,29.90,South,186,0.0,5.0,63,0.00,,,0.00,930,WeatherCatV1.12B45,2013-07-04 15:57:00,
2013-07-04 12:02:00,90.3,76.0,29.90,SSE,165,0.0,4.0,63,0.00,,,0.00,930,WeatherCatV1.12B45,2013-07-04 16:02:00,
2013-07-04 12:07:00,90.8,75.9,29.90,NNW,330,0.0,5.0,62,0.00,,,0.00,935,WeatherCatV1.12B45,2013-07-04 16:07:00,
2013-07-04 12:12:00,91.6,77.2,29.90,NNW,344,3.0,3.0,63,0.00,,,0.00,976,WeatherCatV1.12B45,2013-07-04 16:12:00,
2013-07-04 12:17:00,91.2,75.3,29.90,SSE,165,1.0,2.0,60,0.00,,,0.00,958,WeatherCatV1.12B45,2013-07-04 16:17:00,
2013-07-04 12:22:00,91.4,76.0,29.89,North,5,0.0,10.0,61,0.00,,,0.00,976,WeatherCatV1.12B45,2013-07-04 16:22:00,
2013-07-04 12:27:00,90.8,75.9,29.89,SE,141,3.0,4.0,62,0.00,,,0.00,951,WeatherCatV1.12B45,2013-07-04 16:27:00,
2013-07-04 12:32:00,91.4,75.0,29.89,SE,141,1.0,3.0,59,0.00,,,0.00,944,WeatherCatV1.12B45,2013-07-04 16:32:00,
2013-07-04 12:37:00,91.0,75.1,29.89,South,170,0.0,6.0,60,0.00,,,0.00,977,WeatherCatV1.12B45,2013-07-04 16:37:00,
2013-07-04 12:42:00,91.8,76.9,29.89,SSE,166,0.0,1.0,62,0.00,,,0.00,981,WeatherCatV1.12B45,2013-07-04 16:42:00,
2013-07-04 12:47:00,91.1,75.2,29.89,SSE,156,3.0,7.0,60,0.00,,,0.00,981,WeatherCatV1.12B45,2013-07-04 16:47:00,
2013-07-04 12:52:00,90.9,76.0,29.89,SSE,161,0.0,2.0,62,0.00,,,0.00,199,WeatherCatV1.12B45,2013-07-04 16:52:00,
2013-07-04 12:57:00,91.0,76.1,29.88,NW,316,0.0,6.0,62,0.00,,,0.00,962,WeatherCatV1.12B45,2013-07-04 16:57:00,
2013-07-04 13:02:00,90.6,76.7,29.88,South,190,3.0,3.0,64,0.00,,,0.00,970,WeatherCatV1.12B45,2013-07-04 17:02:00,
2013-07-04 13:07:00,91.3,75.4,29.88,NW,307,1.0,5.0,60,0.00,,,0.00,932,WeatherCatV1.12B45,2013-07-04 17:07:00,
2013-07-04 13:12:00,91.9,76.5,29.88,SE,144,0.0,3.0,61,0.00,,,0.00,946,WeatherCatV1.12B45,2013-07-04 17:12:00,
2013-07-04 13:17:00,92.2,75.8,29.88,SSE,167,1.0,4.0,59,0.00,,,0.00,939,WeatherCatV1.12B45,2013-07-04 17:17:00,
2013-07-04 13:22:00,92.2,75.8,29.88,NW,317,3.0,4.0,59,0.00,,,0.00,942,WeatherCatV1.12B45,2013-07-04 17:22:00,
2013-07-04 13:27:00,92.0,76.6,29.88,NNW,343,3.0,3.0,61,0.00,,,0.00,928,WeatherCatV1.12B45,2013-07-04 17:27:00,
2013-07-04 13:32:00,92.0,74.5,29.88,NNW,346,0.0,4.0,57,0.00,,,0.00,919,WeatherCatV1.12B45,2013-07-04 17:32:00,
2013-07-04 13:37:00,92.4,75.4,29.88,SSW,192,0.0,3.0,58,0.00,,,0.00,919,WeatherCatV1.12B45,2013-07-04 17:37:00,
2013-07-04 13:42:00,92.7,75.7,29.87,NW,317,11.0,11.0,58,0.00,,,0.00,902,WeatherCatV1.12B45,2013-07-04 17:42:00,
2013-07-04 13:47:00,92.4,74.4,29.87,NW,313,1.0,6.0,56,0.00,,,0.00,904,WeatherCatV1.12B45,2013-07-04 17:47:00,
2013-07-04 13:52:00,93.1,76.6,29.87,North,0,3.0,4.0,59,0.00,,,0.00,889,WeatherCatV1.12B45,2013-07-04 17:52:00,
2013-07-04 13:57:00,93.2,75.7,29.86,NNW,332,2.0,3.0,57,0.00,,,0.00,888,WeatherCatV1.12B45,2013-07-04 17:57:00,
2013-07-04 14:02:00,92.7,75.2,29.86,NW,311,4.0,5.0,57,0.00,,,0.00,918,WeatherCatV1.12B45,2013-07-04 18:02:00,
2013-07-04 14:07:00,93.0,75.5,29.86,NNW,333,0.0,3.0,57,0.00,,,0.00,888,WeatherCatV1.12B45,2013-07-04 18:07:00,
2013-07-04 14:12:00,93.0,74.9,29.86,NW,320,4.0,5.0,56,0.00,,,0.00,882,WeatherCatV1.12B45,2013-07-04 18:12:00,
2013-07-04 14:17:00,92.6,75.1,29.86,NNW,333,0.0,4.0,57,0.00,,,0.00,888,WeatherCatV1.12B45,2013-07-04 18:17:00,
2013-07-04 14:22:00,92.6,75.1,29.86,NW,319,2.0,5.0,57,0.00,,,0.00,846,WeatherCatV1.12B45,2013-07-04 18:22:00,
2013-07-04 14:27:00,92.5,76.0,29.86,South,169,0.0,5.0,59,0.00,,,0.00,868,WeatherCatV1.12B45,2013-07-04 18:27:00,
2013-07-04 14:32:00,92.0,75.1,29.86,NW,313,1.0,5.0,58,0.00,,,0.00,868,WeatherCatV1.12B45,2013-07-04 18:32:00,
2013-07-04 14:37:00,92.5,75.5,29.86,SE,139,2.0,4.0,58,0.00,,,0.00,863,WeatherCatV1.12B45,2013-07-04 18:37:00,
2013-07-04 14:42:00,91.9,75.0,29.86,NNE,20,0.0,2.0,58,0.00,,,0.00,863,WeatherCatV1.12B45,2013-07-04 18:42:00,
2013-07-04 14:47:00,91.6,74.7,29.86,SSE,168,3.0,4.0,58,0.00,,,0.00,156,WeatherCatV1.12B45,2013-07-04 18:47:00,
2013-07-04 14:52:00,91.5,75.1,29.85,NW,307,0.0,2.0,59,0.00,,,0.00,149,WeatherCatV1.12B45,2013-07-04 18:52:00,
2013-07-04 14:57:00,91.4,75.0,29.85,SSE,166,0.0,4.0,59,0.00,,,0.00,107,WeatherCatV1.12B45,2013-07-04 18:57:00,
2013-07-04 15:02:00,91.9,75.0,29.85,WNW,301,2.0,4.0,58,0.00,,,0.00,100,WeatherCatV1.12B45,2013-07-04 19:02:00,
2013-07-04 15:07:00,92.3,74.8,29.85,SE,132,2.0,2.0,57,0.00,,,0.00,90,WeatherCatV1.12B45,2013-07-04 19:07:00,
2013-07-04 15:12:00,92.5,75.5,29.85,SSW,200,0.0,2.0,58,0.00,,,0.00,83,WeatherCatV1.12B45,2013-07-04 19:12:00,
2013-07-04 15:17:00,92.4,75.4,29.85,NNW,327,2.0,2.0,58,0.00,,,0.00,90,WeatherCatV1.12B45,2013-07-04 19:17:00,
2013-07-04 15:22:00,92.4,75.4,29.84,SSE,159,1.0,5.0,58,0.00,,,0.00,84,WeatherCatV1.12B45,2013-07-04 19:22:00,
2013-07-04 15:27:00,92.6,75.6,29.84,NNW,338,2.0,3.0,58,0.00,,,0.00,76,WeatherCatV1.12B45,2013-07-04 19:27:00,
2013-07-04 15:32:00,92.5,75.0,29.84,WNW,296,0.0,3.0,57,0.00,,,0.00,84,WeatherCatV1.12B45,2013-07-04 19:32:00,
2013-07-04 15:37:00,92.5,75.0,29.84,NNE,27,0.0,1.0,57,0.00,,,0.00,114,WeatherCatV1.12B45,2013-07-04 19:37:00,
2013-07-04 15:42:00,92.4,75.4,29.84,SSE,161,0.0,1.0,58,0.00,,,0.00,77,WeatherCatV1.12B45,2013-07-04 19:42:00,
2013-07-04 15:47:00,92.4,75.9,29.84,NNW,327,0.0,4.0,59,0.00,,,0.00,109,WeatherCatV1.12B45,2013-07-04 19:47:00,
2013-07-04 15:52:00,92.2,75.2,29.84,South,175,4.0,7.0,58,0.00,,,0.00,88,WeatherCatV1.12B45,2013-07-04 19:52:00,
2013-07-04 15:57:00,92.2,75.2,29.84,NNW,333,3.0,3.0,58,0.00,,,0.00,91,WeatherCatV1.12B45,2013-07-04 19:57:00,
2013-07-04 16:02:00,92.1,75.2,29.84,South,171,0.0,9.0,58,0.00,,,0.00,74,WeatherCatV1.12B45,2013-07-04 20:02:00,
2013-07-04 16:07:00,92.0,74.5,29.84,NW,309,1.0,5.0,57,0.00,,,0.00,76,WeatherCatV1.12B45,2013-07-04 20:07:00,
2013-07-04 16:12:00,92.0,74.5,29.84,NNW,327,0.0,2.0,57,0.00,,,0.00,100,WeatherCatV1.12B45,2013-07-04 20:12:00,
2013-07-04 16:17:00,91.9,75.0,29.84,NNE,33,0.0,3.0,58,0.00,,,0.00,148,WeatherCatV1.12B45,2013-07-04 20:17:00,
2013-07-04 16:22:00,91.9,75.5,29.83,SE,138,0.0,2.0,59,0.00,,,0.00,118,WeatherCatV1.12B45,2013-07-04 20:22:00,
2013-07-04 16:27:00,91.9,75.5,29.84,SSE,159,1.0,6.0,59,0.00,,,0.00,91,WeatherCatV1.12B45,2013-07-04 20:27:00,
2013-07-04 16:32:00,91.8,75.4,29.84,SSE,163,3.0,5.0,59,0.00,,,0.00,104,WeatherCatV1.12B45,2013-07-04 20:32:00,
2013-07-04 16:37:00,91.8,75.9,29.83,SSE,161,1.0,1.0,60,0.00,,,0.00,104,WeatherCatV1.12B45,2013-07-04 20:37:00,
2013-07-04 16:42:00,91.8,75.4,29.83,ESE,121,1.0,5.0,59,0.00,,,0.00,65,WeatherCatV1.12B45,2013-07-04 20:42:00,
2013-07-04 16:47:00,91.6,75.7,29.83,South,171,0.0,2.0,60,0.00,,,0.00,90,WeatherCatV1.12B45,2013-07-04 20:47:00,
2013-07-04 16:52:00,91.5,76.1,29.83,South,172,0.0,5.0,61,0.00,,,0.00,69,WeatherCatV1.12B45,2013-07-04 20:52:00,
2013-07-04 16:57:00,91.3,75.4,29.83,South,172,1.0,3.0,60,0.00,,,0.00,30,WeatherCatV1.12B45,2013-07-04 20:57:00,
2013-07-04 17:02:00,91.1,75.2,29.83,ESE,111,2.0,4.0,60,0.00,,,0.00,67,WeatherCatV1.12B45,2013-07-04 21:02:00,
2013-07-04 17:07:00,91.0,75.6,29.83,SE,132,1.0,1.0,61,0.00,,,0.00,72,WeatherCatV1.12B45,2013-07-04 21:07:00,
2013-07-04 17:12:00,90.9,75.1,29.83,NE,53,2.0,4.0,60,0.00,,,0.00,79,WeatherCatV1.12B45,2013-07-04 21:12:00,
2013-07-04 17:17:00,90.8,75.0,29.83,NNW,327,0.0,2.0,60,0.00,,,0.00,76,WeatherCatV1.12B45,2013-07-04 21:17:00,
2013-07-04 17:22:00,90.7,75.4,29.83,NNW,333,0.0,4.0,61,0.00,,,0.00,62,WeatherCatV1.12B45,2013-07-04 21:22:00,
2013-07-04 17:27:00,90.7,75.4,29.83,SSE,155,3.0,4.0,61,0.00,,,0.00,56,WeatherCatV1.12B45,2013-07-04 21:27:00,
2013-07-04 17:32:00,90.6,75.3,29.83,SSE,150,2.0,5.0,61,0.00,,,0.00,67,WeatherCatV1.12B45,2013-07-04 21:32:00,
2013-07-04 17:37:00,90.6,75.3,29.83,SSW,194,0.0,1.0,61,0.00,,,0.00,72,WeatherCatV1.12B45,2013-07-04 21:37:00,
2013-07-04 17:42:00,90.5,75.7,29.83,South,177,3.0,3.0,62,0.00,,,0.00,62,WeatherCatV1.12B45,2013-07-04 21:42:00,
2013-07-04 17:47:00,90.5,75.2,29.83,SSE,164,3.0,5.0,61,0.00,,,0.00,77,WeatherCatV1.12B45,2013-07-04 21:47:00,
2013-07-04 17:52:00,90.4,74.6,29.83,SE,137,0.0,2.0,60,0.00,,,0.00,51,WeatherCatV1.12B45,2013-07-04 21:52:00,
2013-07-04 17:57:00,90.4,74.6,29.83,South,172,1.0,4.0,60,0.00,,,0.00,47,WeatherCatV1.12B45,2013-07-04 21:57:00,
2013-07-04 18:02:00,90.3,75.0,29.83,North,350,0.0,2.0,61,0.00,,,0.00,46,WeatherCatV1.12B45,2013-07-04 22:02:00,
2013-07-04 18:07:00,90.3,75.0,29.83,NW,314,1.0,3.0,61,0.00,,,0.00,49,WeatherCatV1.12B45,2013-07-04 22:07:00,
2013-07-04 18:12:00,90.2,74.9,29.83,South,188,2.0,3.0,61,0.00,,,0.00,47,WeatherCatV1.12B45,2013-07-04 22:12:00,
2013-07-04 18:17:00,90.2,74.9,29.83,NW,304,1.0,2.0,61,0.00,,,0.00,44,WeatherCatV1.12B45,2013-07-04 22:17:00,
2013-07-04 18:22:00,90.1,74.8,29.83,NNE,32,0.0,2.0,61,0.00,,,0.00,42,WeatherCatV1.12B45,2013-07-04 22:22:00,
2013-07-04 18:27:00,90.0,74.7,29.83,SSE,167,1.0,6.0,61,0.00,,,0.00,42,WeatherCatV1.12B45,2013-07-04 22:27:00,
2013-07-04 18:32:00,89.8,74.5,29.83,WNW,296,0.0,1.0,61,0.00,,,0.00,39,WeatherCatV1.12B45,2013-07-04 22:32:00,
2013-07-04 18:37:00,89.7,74.4,29.83,SSE,156,3.0,6.0,61,0.00,,,0.00,39,WeatherCatV1.12B45,2013-07-04 22:37:00,
2013-07-04 18:42:00,89.5,74.7,29.83,South,179,1.0,5.0,62,0.00,,,0.00,37,WeatherCatV1.12B45,2013-07-04 22:42:00,
2013-07-04 18:47:00,89.3,74.5,29.83,NNW,337,2.0,3.0,62,0.00,,,0.00,35,WeatherCatV1.12B45,2013-07-04 22:47:00,
2013-07-04 18:52:00,89.2,74.4,29.83,SE,142,0.0,2.0,62,0.00,,,0.00,33,WeatherCatV1.12B45,2013-07-04 22:52:00,
2013-07-04 18:57:00,89.0,74.7,29.83,South,175,0.0,2.0,63,0.00,,,0.00,33,WeatherCatV1.12B45,2013-07-04 22:57:00,
2013-07-04 19:02:00,88.8,74.5,29.83,SSE,152,4.0,4.0,63,0.00,,,0.00,32,WeatherCatV1.12B45,2013-07-04 23:02:00,
2013-07-04 19:07:00,88.7,74.4,29.83,North,355,1.0,3.0,63,0.00,,,0.00,30,WeatherCatV1.12B45,2013-07-04 23:07:00,
2013-07-04 19:12:00,88.5,74.7,29.83,NW,326,4.0,4.0,64,0.00,,,0.00,28,WeatherCatV1.12B45,2013-07-04 23:12:00,
2013-07-04 19:17:00,88.4,74.6,29.83,NE,45,1.0,3.0,64,0.00,,,0.00,26,WeatherCatV1.12B45,2013-07-04 23:17:00,
2013-07-04 19:22:00,88.3,75.0,29.83,South,186,1.0,7.0,65,0.00,,,0.00,25,WeatherCatV1.12B45,2013-07-04 23:22:00,
2013-07-04 19:27:00,88.1,74.8,29.83,North,355,0.0,5.0,65,0.00,,,0.00,23,WeatherCatV1.12B45,2013-07-04 23:27:00,
2013-07-04 19:32:00,87.9,75.1,29.83,WSW,254,1.0,2.0,66,0.00,,,0.00,21,WeatherCatV1.12B45,2013-07-04 23:32:00,
2013-07-04 19:37:00,87.8,75.0,29.83,WNW,301,0.0,1.0,66,0.00,,,0.00,19,WeatherCatV1.12B45,2013-07-04 23:37:00,
2013-07-04 19:42:00,87.7,75.3,29.84,SW,236,0.0,0.0,67,0.00,,,0.00,16,WeatherCatV1.12B45,2013-07-04 23:42:00,
2013-07-04 19:47:00,87.5,75.2,29.84,SSE,168,2.0,3.0,67,0.00,,,0.00,14,WeatherCatV1.12B45,2013-07-04 23:47:00,
2013-07-04 19:52:00,87.3,75.0,29.83,North,0,1.0,2.0,67,0.00,,,0.00,12,WeatherCatV1.12B45,2013-07-04 23:52:00,
2013-07-04 19:57:00,87.1,75.2,29.83,SSE,165,0.0,3.0,68,0.00,,,0.00,11,WeatherCatV1.12B45,2013-07-04 23:57:00,
2013-07-04 20:02:00,87.1,75.2,29.83,SSE,161,1.0,2.0,68,0.00,,,0.00,7,WeatherCatV1.12B45,2013-07-05 00:02:00,
2013-07-04 20:07:00,86.9,75.0,29.84,SSE,165,0.0,2.0,68,0.00,,,0.00,5,WeatherCatV1.12B45,2013-07-05 00:07:00,
2013-07-04 20:12:00,86.7,74.8,29.84,SSE,164,0.0,3.0,68,0.00,,,0.00,5,WeatherCatV1.12B45,2013-07-05 00:12:00,
2013-07-04 20:17:00,86.5,75.1,29.84,SSE,153,0.0,2.0,69,0.00,,,0.00,0,WeatherCatV1.12B45,2013-07-05 00:17:00,
2013-07-04 20:22:00,86.3,74.9,29.84,NNW,333,0.0,1.0,69,0.00,,,0.00,0,WeatherCatV1.12B45,2013-07-05 00:22:00,
2013-07-04 20:27:00,86.1,74.7,29.84,NNW,333,0.0,1.0,69,0.00,,,0.00,0,WeatherCatV1.12B45,2013-07-05 00:27:00,
2013-07-04 20:32:00,86.0,75.0,29.85,SSW,209,0.0,1.0,70,0.00,,,0.00,0,WeatherCatV1.12B45,2013-07-05 00:32:00,
2013-07-04 20:37:00,85.8,74.9,29.85,SSW,207,0.0,0.0,70,0.00,,,0.00,0,WeatherCatV1.12B45,2013-07-05 00:37:00,
2013-07-04 20:42:00,85.7,74.8,29.85,South,178,0.0,1.0,70,0.00,,,0.00,0,WeatherCatV1.12B45,2013-07-05 00:42:00,
2013-07-04 20:47:00,85.5,75.0,29.85,SSE,165,0.0,3.0,71,0.00,,,0.00,0,WeatherCatV1.12B45,2013-07-05 00:47:00,
2013-07-04 20:52:00,85.3,74.8,29.85,South,175,3.0,3.0,71,0.00,,,0.00,0,WeatherCatV1.12B45,2013-07-05 00:52:00,
2013-07-04 20:57:00,85.1,75.0,29.85,SE,144,0.0,6.0,72,0.00,,,0.00,0,WeatherCatV1.12B45,2013-07-05 00:57:00,
2013-07-04 21:02:00,84.9,74.8,29.85,SSE,168,0.0,2.0,72,0.00,,,0.00,0,WeatherCatV1.12B45,2013-07-05 01:02:00,
2013-07-04 21:07:00,84.7,75.1,29.85,South,169,1.0,1.0,73,0.00,,,0.00,0,WeatherCatV1.12B45,2013-07-05 01:07:00,
2013-07-04 21:12:00,84.6,75.0,29.85,North,0,0.0,4.0,73,0.00,,,0.00,0,WeatherCatV1.12B45,2013-07-05 01:12:00,
2013-07-04 21:17:00,84.4,75.2,29.85,North,355,1.0,1.0,74,0.00,,,0.00,0,WeatherCatV1.12B45,2013-07-05 01:17:00,
2013-07-04 21:22:00,84.2,75.0,29.85,ESE,121,0.0,5.0,74,0.00,,,0.00,0,WeatherCatV1.12B45,2013-07-05 01:22:00,
2013-07-04 21:27:00,84.1,74.9,29.86,South,175,2.0,3.0,74,0.00,,,0.00,0,WeatherCatV1.12B45,2013-07-05 01:27:00,
2013-07-04 21:32:00,83.9,75.1,29.85,NNW,331,2.0,4.0,75,0.00,,,0.00,0,WeatherCatV1.12B45,2013-07-05 01:32:00,
2013-07-04 21:37:00,83.7,74.9,29.85,SSE,156,0.0,5.0,75,0.00,,,0.00,0,WeatherCatV1.12B45,2013-07-05 01:37:00,
2013-07-04 21:42:00,83.5,75.1,29.85,SSW,210,4.0,7.0,76,0.00,,,0.00,0,WeatherCatV1.12B45,2013-07-05 01:42:00,
2013-07-04 21:47:00,83.3,74.9,29.85,SE,132,1.0,3.0,76,0.00,,,0.00,0,WeatherCatV1.12B45,2013-07-05 01:47:00,
2013-07-04 21:52:00,83.1,75.1,29.86,West,263,0.0,5.0,77,0.00,,,0.00,0,WeatherCatV1.12B45,2013-07-05 01:52:00,
2013-07-04 21:57:00,82.9,74.9,29.86,SSE,155,0.0,3.0,77,0.00,,,0.00,0,WeatherCatV1.12B45,2013-07-05 01:57:00,
2013-07-04 22:02:00,82.8,74.8,29.86,SE,141,0.0,2.0,77,0.00,,,0.00,0,WeatherCatV1.12B45,2013-07-05 02:02:00,
2013-07-04 22:07:00,82.7,74.7,29.86,South,173,0.0,3.0,77,0.00,,,0.00,0,WeatherCatV1.12B45,2013-07-05 02:07:00,
2013-07-04 22:12:00,82.5,74.9,29.86,SSE,156,0.0,1.0,78,0.00,,,0.00,0,WeatherCatV1.12B45,2013-07-05 02:12:00,
2013-07-04 22:17:00,82.3,74.7,29.85,NW,315,0.0,2.0,78,0.00,,,0.00,0,WeatherCatV1.12B45,2013-07-05 02:17:00,
2013-07-04 22:22:00,82.2,74.6,29.85,ENE,59,0.0,2.0,78,0.00,,,0.00,0,WeatherCatV1.12B45,2013-07-05 02:22:00,
2013-07-04 22:27:00,82.1,74.5,29.85,NNW,338,3.0,3.0,78,0.00,,,0.00,0,WeatherCatV1.12B45,2013-07-05 02:27:00,
2013-07-04 22:32:00,81.9,74.7,29.85,NW,325,2.0,6.0,79,0.00,,,0.00,0,WeatherCatV1.12B45,2013-07-05 02:32:00,
2013-07-04 22:37:00,81.8,74.6,29.85,NW,324,0.0,1.0,79,0.00,,,0.00,0,WeatherCatV1.12B45,2013-07-05 02:37:00,
2013-07-04 22:42:00,81.6,74.4,29.86,SSE,153,0.0,3.0,79,0.00,,,0.00,0,WeatherCatV1.12B45,2013-07-05 02:42:00,
2013-07-04 22:47:00,81.6,74.4,29.86,South,174,3.0,5.0,79,0.00,,,0.00,0,WeatherCatV1.12B45,2013-07-05 02:47:00,
2013-07-04 22:52:00,81.4,74.2,29.86,North,0,0.0,2.0,79,0.00,,,0.00,0,WeatherCatV1.12B45,2013-07-05 02:52:00,
2013-07-04 22:57:00,81.3,74.1,29.86,NNW,331,0.0,4.0,79,0.00,,,0.00,0,WeatherCatV1.12B45,2013-07-05 02:57:00,
2013-07-04 23:02:00,81.2,74.4,29.86,West,279,1.0,2.0,80,0.00,,,0.00,0,WeatherCatV1.12B45,2013-07-05 03:02:00,
2013-07-04 23:07:00,81.1,74.3,29.86,SW,226,0.0,1.0,80,0.00,,,0.00,0,WeatherCatV1.12B45,2013-07-05 03:07:00,
2013-07-04 23:12:00,81.0,74.2,29.86,SSE,157,1.0,2.0,80,0.00,,,0.00,0,WeatherCatV1.12B45,2013-07-05 03:12:00,
2013-07-04 23:17:00,80.9,74.1,29.86,ESE,118,0.0,2.0,80,0.00,,,0.00,0,WeatherCatV1.12B45,2013-07-05 03:17:00,
2013-07-04 23:22:00,80.8,74.0,29.86,NW,322,2.0,4.0,80,0.00,,,0.00,0,WeatherCatV1.12B45,2013-07-05 03:22:00,
2013-07-04 23:27:00,80.7,73.9,29.86,SSE,159,1.0,2.0,80,0.00,,,0.00,0,WeatherCatV1.12B45,2013-07-05 03:27:00,
2013-07-04 23:32:00,80.5,73.7,29.86,NW,307,0.0,4.0,80,0.00,,,0.00,0,WeatherCatV1.12B45,2013-07-05 03:32:00,
2013-07-04 23:37:00,80.4,73.6,29.86,South,186,0.0,4.0,80,0.00,,,0.00,0,WeatherCatV1.12B45,2013-07-05 03:37:00,
2013-07-04 23:42:00,80.3,73.5,29.86,ESE,121,2.0,3.0,80,0.00,,,0.00,0,WeatherCatV1.12B45,2013-07-05 03:42:00,
2013-07-04 23:47:00,80.2,73.5,29.86,South,188,1.0,1.0,80,0.00,,,0.00,0,WeatherCatV1.12B45,2013-07-05 03:47:00,
2013-07-04 23:52:00,80.2,73.8,29.86,SE,125,0.0,1.0,81,0.00,,,0.00,0,WeatherCatV1.12B45,2013-07-05 03:52:00,
2013-07-04 23:57:00,80.1,73.7,29.86,ENE,58,1.0,2.0,81,0.00,,,0.00,0,WeatherCatV1.12B45,2013-07-05 03:57:00,